Location: Hiram
(41.3130°N, 81.1440°W)
Time: 09:44:17
(UTC-04:00)

Daily predictions for brighter satellites

Satellite Brightness Start Highest point End
(mag) Time Altitude Azimuth Time Altitude Azimuth Time Altitude Azimuth
Cosmos 2123 Rocket 4.3 20:02:19 10° N 20:08:23 46° ENE 20:14:22 10° SSE
NOAA 12 4.4 20:07:48 10° S 20:13:07 74° WSW 20:18:26 10° NNW
ALOS 2.3 20:10:35 10° SSE 20:15:12 67° ENE 20:19:51 10° N
USA 215 4.2 20:12:14 10° ENE 20:17:22 24° SE 20:22:28 10° S
Meteor 2-5 Rocket 4.1 20:11:59 10° NNW 20:17:42 72° W 20:23:30 10° S
COSMOS 2406 4.1 20:15:44 10° NNW 20:21:19 54° WSW 20:26:50 10° S
Cosmos 1766 3.2 20:20:50 10° S 20:24:39 63° E 20:28:31 10° NNE
Spot 2 Rocket 3.7 20:20:31 10° SSE 20:25:27 53° ENE 20:30:26 10° N
Lacrosse 5 rocket 3.4 20:25:51 10° NNW 20:28:07 15° NNE 20:30:19 10° ENE
Cosmos 1844 4.1 20:24:54 10° SSW 20:30:38 70° WNW 20:36:27 10° NNE
CZ-4B DEB 4.5 20:31:09 14° E 20:31:59 15° ENE 20:33:54 10° NNE
Resurs 1-3 3.7 20:30:01 10° SSE 20:34:18 57° ENE 20:38:36 10° N
Cosmos 990 Rocket 4.2 20:31:27 10° SSW 20:36:41 76° WNW 20:41:57 10° NNE
RESURS DK-1 2.5 20:36:04 10° NNW 20:40:12 77° WSW 20:44:20 10° SSE
BREEZE-M DEB (TANK) 2.9 20:37:32 10° SW 20:40:13 70° SE 20:46:56 10° ENE
Envisat 3.9 20:40:01 14° ESE 20:43:35 30° ENE 20:47:58 10° N
Cosmos 1674 3.8 20:42:58 10° NNE 20:46:09 25° ENE 20:47:22 21° ESE
Cosmos 1408 Rocket 4.4 20:43:57 10° NNE 20:47:58 31° ENE 20:50:27 19° SE
Lacrosse 5 2.1 20:43:56 10° SW 20:48:59 72° NW 20:54:04 10° NE
Cosmos 1125 Rocket 3.6 20:45:50 10° S 20:50:48 48° ESE 20:55:48 10° NNE
Cosmos 2344 3.9 20:44:15 10° SW 20:51:55 77° NW 21:00:36 10° NE
CZ-2D R/B 3.2 20:49:03 10° SSE 20:52:54 79° ENE 20:56:48 10° N
BREEZE-M DEB (TANK) 3.6 20:50:10 10° SSW 20:53:14 36° SE 21:01:24 10° ENE
Cosmos 1048 Rocket 4.3 20:49:38 10° N 20:54:33 44° ENE 20:57:42 20° SE
Timation 1 Rocket 4.3 20:50:53 10° S 20:56:47 63° ESE 21:02:44 10° NNE
Geosat 3.9 20:52:25 10° NNE 20:57:28 71° ESE 21:02:28 10° SSW
SAR-Lupe-4 3.5 20:55:34 16° SSE 20:58:14 61° ENE 21:01:47 10° N
Cosmos 1805 3.1 20:54:21 10° S 20:58:14 81° E 21:02:09 10° N
Cosmos 1934 Rocket 4.5 20:52:25 10° SSW 20:58:28 62° W 21:04:30 10° N
Okean 3 Rocket 3.5 20:55:11 10° N 20:59:35 86° W 21:04:00 10° S
Tiangong 1 2.5 20:59:31 10° W 21:02:04 27° SSW 21:03:03 22° S
In-Cosmos 22 4.3 20:58:52 10° NNW 21:04:11 73° W 21:09:25 10° S
ERS-1 Rocket 4.0 21:03:25 24° E 21:04:37 26° ENE 21:08:44 10° N
Abrixas 2.3 21:03:44 10° WNW 21:06:34 68° NNE 21:06:57 57° E
SeaSat 1 4.0 21:06:55 10° S 21:11:24 35° WSW 21:15:54 10° NW
Cosmos 1470 3.1 21:12:27 37° SE 21:13:14 42° E 21:17:01 10° NNE
USA 186 1.6 21:15:09 52° W 21:15:09 52° W 21:17:14 10° NNW
Cosmos 1340 Rocket 3.4 21:13:21 10° N 21:17:06 37° ENE 21:17:06 37° ENE
SAR-Lupe-1 4.0 21:16:03 27° SSE 21:17:53 86° WSW 21:21:30 10° NNW
Cosmos 1833 Rocket 2.7 21:13:04 10° NNW 21:18:39 62° ENE 21:21:14 32° SE
Meteor 1-29 2.8 21:15:22 10° NNE 21:18:50 71° ESE 21:21:00 21° S
H-2A R/B (2) 3.9 21:17:23 10° SW 21:20:03 18° S 21:20:59 17° SSE
Cosmos 1076 Rocket 3.6 21:17:38 10° N 21:21:54 76° W 21:25:13 16° S
Cosmos 1818 3.6 21:16:35 10° NW 21:22:03 84° WSW 21:25:02 28° SSE
Cosmos 2278 Rocket 3.2 21:16:44 10° SW 21:22:12 47° WNW 21:27:41 10° NNE
COSMOS 2487 2.3 21:19:47 10° NNW 21:23:21 71° ENE 21:23:40 65° ESE
GP-B 3.0 21:19:19 11° S 21:23:35 87° E 21:28:02 10° N
Meteor 1-4 Rocket 3.1 21:21:31 10° SSW 21:24:56 55° WNW 21:28:21 10° N
Cosmos 2016 Rocket 4.3 21:24:19 30° SE 21:26:44 42° E 21:32:29 10° NNE
Helios 1B rocket 2.6 21:22:47 10° N 21:26:55 75° WNW 21:31:01 10° SSW
Cosmos 1733 3.1 21:27:32 61° E 21:27:33 61° E 21:31:24 10° NNE
Resurs 01 Rocket 3.4 21:23:58 10° SSW 21:27:53 31° W 21:31:50 10° NNW
SJ-11-01 4.2 21:26:01 35° SSE 21:27:58 71° ENE 21:32:41 10° N
CZ-3B DEB 3.7 21:20:27 10° WSW 21:29:59 44° NW 21:34:33 10° NE
Cosmos 1269 Rocket 4.0 21:25:55 10° NNW 21:31:14 85° WSW 21:33:58 29° SSE
Cosmos 1766 Rocket 3.6 21:27:34 10° N 21:32:04 84° W 21:34:17 30° S
SWAS 4.3 21:31:45 10° SSW 21:36:01 74° ESE 21:40:20 10° NNE
Helios 1A 3.8 21:33:37 17° S 21:36:40 50° W 21:40:45 10° NNW
Cosmos 2297 3.8 21:31:04 10° SSW 21:36:46 77° WNW 21:42:32 10° NNE
ATLAS 5 CENTAUR R/B 1.6 21:33:06 10° SSW 21:37:42 66° ESE 21:41:13 19° NE
Cosmos 2100 Rocket 3.9 21:34:55 10° S 21:41:14 84° E 21:47:37 10° N
Cosmos 1953 3.9 21:41:03 10° SW 21:44:48 36° WNW 21:48:35 10° N
Cosmos-2242 3.2 21:44:00 20° SSW 21:46:50 69° W 21:51:05 10° N
Cosmos 1939 Rocket 3.0 21:46:50 64° SSW 21:47:21 75° WSW 21:51:32 10° NNW
Tsikada Rocket 4.4 21:43:30 10° N 21:49:15 41° ENE 21:49:15 41° ENE
Cosmos 2082 Rocket 2.5 21:46:41 10° NNW 21:52:19 65° WSW 21:54:34 36° S
Cosmos 372 Rocket 4.4 21:48:03 10° SSW 21:53:06 61° WNW 21:58:13 10° NNE
Cosmos 1867 4.1 21:52:08 10° SW 21:57:29 58° NW 22:02:54 10° NNE
Meteor 1-16 Rocket 4.2 21:58:15 64° ESE 21:58:32 65° E 22:04:24 10° NNE
USA 215 3.2 21:54:16 10° NE 22:00:51 88° NW 22:07:23 10° SW
Cosmos 1802 Rocket 3.9 21:56:20 17° S 22:01:12 86° W 22:07:25 10° N
Cosmos 1271 Rocket 3.7 22:00:43 39° WSW 22:01:43 48° WNW 22:05:38 10° N
Cosmos 1743 Rocket 3.8 21:59:17 10° N 22:03:13 68° NNW 22:03:13 68° NNW
Cosmos 1500 Rocket 4.4 22:01:32 10° N 22:04:27 41° N 22:04:27 41° N
Lacrosse 5 rocket 2.6 22:04:12 10° NW 22:06:37 35° NNW 22:06:37 35° NNW
ARGOS 3.8 22:10:26 42° NE 22:10:26 42° NE 22:14:30 10° N
MetOp-A 4.2 22:11:07 65° NE 22:11:07 65° NE 22:15:57 10° N
Cosmos 2061 Rocket 4.4 22:06:40 10° SSW 22:12:59 65° W 22:19:25 10° N
Cosmos 494 Rocket 4.3 22:12:27 10° NNW 22:16:35 57° N 22:16:35 57° N
H-2A R/B 3.4 22:24:05 29° NNE 22:24:05 29° NNE 22:27:03 10° N
Envisat 4.5 22:20:13 22° SW 22:22:30 32° W 22:27:03 10° NNW
Lacrosse 5 4.2 22:28:58 10° WNW 22:32:45 21° NNW 22:36:05 12° NNE
USA 267 3.5 22:32:47 54° NE 22:33:05 55° NNE 22:39:26 10° NW
SPOT 5 3.7 22:35:43 54° NNW 22:35:43 54° NNW 22:39:48 10° NNW
ERS-1 Rocket 4.2 22:43:25 37° W 22:43:25 37° W 22:47:53 10° NNW
Terra 4.2 23:00:29 16° N 23:00:29 16° N 23:01:34 10° N
ATLAS 5 CENTAUR R/B 4.2 23:19:14 10° W 23:22:55 21° NW 23:26:51 10° NNE
